Regional Weather Roundup
Issued by NWS Goodland, KS

Home | Current Version | Previous Version | Graphics & Text | Print | Product List | Glossary Off
Versions: 1 2 3 4 5 6 7 8 9 10 11 12 13 14 15 16 17 18 19 20 21 22 23 24 25 26 27 28 29 30 31 32 33 34 35 36 37 38 39 40 41 42 43 44 45 46 47 48 49 50

000
ASUS43 KGLD 280359
RWRGLD

GOODLAND FORECAST AREA HOURLY WEATHER ROUNDUP
NATIONAL WEATHER SERVICE GOODLAND KS
1000 PM MDT THU AUG 27 2015

...OFFICIAL OBSERVATIONS...

CITY           SKY/WX    TMP DP  RH WIND       PRES   REMARKS
GOODLAND KS    PTCLDY    73  60  63 NW9       30.00R
HILL CITY KS   CLOUDY    79  63  57 S13G21    29.87R
IMPERIAL NEB   MOCLDY    70  60  70 N9        29.99R
MCCOOK NEB     MOCLDY    77  65  66 N15       29.89R
AKRON CO       PTCLDY    63  61  93 W7        30.11R
BURLINGTON CO  MOCLDY    71  55  56 W9        30.08R
LIMON CO       MOCLDY    61  57  87 NW6       30.17S
$$

...UNOFFICIAL OBSERVATIONS...

CITY           SKY/WX    TMP DP  RH WIND       PRES   REMARKS
COLBY KS       CLEAR     75  64  69 NW10      29.95R
GOVE KS          N/A     80  32  17 MISG        N/A
LENORA KS        N/A     80  32  17 MISG        N/A
NORTON KS      CLEAR     75  55  50 CALM      29.85R
SHARON SPRINGS   N/A     74  58  57 W5G12       N/A
TRENTON NEB      N/A     74  32  21 NW12        N/A
KIT CARSON CO    N/A     69  61  75 MISG        N/A
YUMA CO          N/A     64  61  90 NW5         N/A
$$



USA.gov is the U.S. government's official web portal to all federal, state and local government web resources and services.